Regional Weather Roundup
Issued by NWS

Home | Current Version | Previous Version | Text Only | Print | Product List | Glossary Off
Versions: 1 2 3 4 5 6 7 8 9 10 11 12 13 14 15 16 17 18 19 20 21 22 23 24 25 26 27 28 29 30 31 32 33 34 35 36 37 38 39 40 41 42 43 44 45 46 47 48 49 50

000
ASUS43 KDMX 062104
RWRIA

WEATHER ROUNDUP FOR IOWA
NATIONAL WEATHER SERVICE DES MOINES IA
  ISSUED BY NWS QUAD CITIES IA IL
300 PM CST FRI MAR 06 2015

NOTE: "FAIR" INDICATES FEW OR NO CLOUDS BELOW 12,000 FEET WITH NO
SIGNIFICANT WEATHER AND/OR OBSTRUCTIONS TO VISIBILITY.

* - THESE STATIONS ARE NOT NWS STATIONS...THUS NOT UNDER NWS
QUALITY CONTROL.  THEY ALSO DO NOT REPORT WEATHER SUCH
AS PRECIPITATION OR FOG.

IAZ001>003-012>014-020>022-031>034-043>046-062200-
   NORTHWEST IOWA

CITY           SKY/WX    TMP DP  RH WIND       PRES   REMARKS
CARROLL *      MOSUNNY   54  25  32 SW16      30.09F
CHEROKEE *     CLOUDY    53  25  33 W13       30.08F
DENNISON *     PTSUNNY   55  25  30 SW15G24   30.07F
LE MARS *      PTSUNNY   54  23  30 NW17      30.10F
ORANGE CITY *  PTSUNNY   52  21  30 NW16G23   30.09F
SHELDON *      PTSUNNY   46  25  42 NW14      30.08F
SIOUX CITY     PTSUNNY   58  21  24 N18       30.09R
SPENCER        PTSUNNY   48  26  42 NW15      30.08F
STORM LAKE *   PTSUNNY   52  27  37 W10       30.08F
$$

IAZ055>058-069>071-079>083-090>094-062200-
   SOUTHWEST IOWA

CITY           SKY/WX    TMP DP  RH WIND       PRES   REMARKS
ATLANTIC *     MOSUNNY   55  21  26 W15       30.12F
AUDUBON *      MOSUNNY   52  19  28 SW13      30.12F
CLARINDA *     SUNNY     61  18  18 W14G22    30.17F
COUNCIL BLFS * SUNNY     59  19  21 W17G28    30.11F
CRESTON *      SUNNY     55  19  24 W14G21    30.15F
HARLAN *       PTSUNNY   55  25  30 SW13G21   30.14F
LAMONI         SUNNY     54  24  31 W14       30.17F
RED OAK *      SUNNY     59  19  21 W14G22    30.14F
SHENANDOAH *   SUNNY     61  16  17 W20G25    30.16F
$$

IAZ047>049-059>061-072>074-084-062200-
   CENTRAL IOWA

CITY           SKY/WX    TMP DP  RH WIND       PRES   REMARKS
AMES           SUNNY     46  28  49 SW12      30.11F
ANKENY *       SUNNY     52  23  32 W12G18    30.13F
BOONE *        SUNNY     50  27  40 SW10      30.09F
CHARITON *     SUNNY     54  21  28 W14G23    30.15F
DES MOINES     PTSUNNY   53  21  28 W15       30.13F
GRINNELL *     CLEAR     43  27  52 SW7       30.14F WCI  39
KNOXVILLE *    SUNNY     52  23  32 W13       30.13F
MARSHALLTOWN   SUNNY     40  26  57 SW10      30.11F WCI  33
NEWTON *       SUNNY     46  27  46 SW12      30.13F
PELLA *        SUNNY     51  28  41 W10       30.16F
PERRY *        FAIR      51  27  39 W12       30.11F
$$

IAZ004>006-015-016-023>025-035-036-062200-
   NORTH CENTRAL IOWA

CITY           SKY/WX    TMP DP  RH WIND       PRES   REMARKS
ALGONA *       SUNNY     48  46  93 NW13G21   30.08F
CLARION *      SUNNY     45  34  65 SW13      30.09F WCI  38
ESTHERVILLE    SUNNY     44  28  53 NW15      30.07S WCI  37
FORT DODGE *   MOSUNNY   48  30  49 SW8       30.10S
MASON CITY     SUNNY     40  30  67 SW9       30.07F WCI  34
FOREST CITY *  FAIR      43  25  49 NW10      30.06F WCI  37
WEBSTER CITY * SUNNY     45  30  57 SW12      30.08F WCI  39
IOWA FALLS *   FAIR      41  29  62 S7        30.11S WCI  37
$$

IAZ007>011-017>019-026>030-037>042-050>054-066-062200-
   NORTHEAST IOWA

CITY           SKY/WX    TMP DP  RH WIND       PRES   REMARKS
CEDAR RAPIDS   SUNNY     35  24  64 SW12      30.14F WCI  27
CHARLES CITY * SUNNY     34  27  75 SW13      30.09S WCI  25
CLINTON *      SUNNY     32  21  64 SW14      30.20F WCI  22
DECORAH *      SUNNY     32  19  59 SW12G18   30.07F WCI  23
DUBUQUE        SUNNY     29  19  66 SW14      30.13F WCI  18
MONTICELLO *   SUNNY     34  23  64 SW9       30.15F WCI  26
OELWEIN *      SUNNY     32  25  74 SW13G18   30.11F WCI  22
WATERLOO       SUNNY     35  25  66 SW14      30.11F WCI  26
$$

IAZ064-065-067-068-078-062200-
   EAST CENTRAL IOWA

CITY           SKY/WX    TMP DP  RH WIND       PRES   REMARKS
DAVENPORT      SUNNY     34  21  59 SW12      30.19F WCI  25
IOWA CITY      SUNNY     37  23  56 SW9       30.18F WCI  30
MT. PLEASANT * SUNNY     43  25  49 SW10      30.19F WCI  37
MUSCATINE *    SUNNY     39  23  52 SW9       30.19F WCI  33
QUAD CITIES    SUNNY     35  21  56 SW9       30.19F WCI  28
$$

IAZ062-063-075>077-085>089-095>099-062200-
   SOUTHEAST IOWA

CITY           SKY/WX    TMP DP  RH WIND       PRES   REMARKS
BURLINGTON     SUNNY     40  26  57 SW8       30.19F WCI  34
FAIRFIELD *    SUNNY     45  25  45 SW13      30.17F WCI  38
FORT MADISON * SUNNY     43  27  52 SW9       30.20F WCI  37
KEOKUK *       SUNNY     45  27  49 SW9       30.19F WCI  40
OSKALOOSA *    FAIR      48  25  41 W10       30.15F
CENTERVILLE *  FAIR      50  23  34 W14       30.19S
OTTUMWA        SUNNY     49  23  36 W14       30.15F
WASHINGTON *   SUNNY     41  27  56 SW13      30.17F WCI  34
$$

ABBREVIATIONS USED IN REMARKS
   TC - TEMPERATURES IN CELSIUS
  WCI - WIND CHILL INDEX
   HX - HEAT INDEX
  VSB - VISIBILITY
$$



USA.gov is the U.S. government's official web portal to all federal, state and local government web resources and services.